TimeEET,TemperatureF,Dew PointF,Humidity,Sea Level PressureIn,VisibilityMPH,Wind Direction,Wind SpeedMPH,Gust SpeedMPH,PrecipitationIn,Events,Conditions,WindDirDegrees,DateUTC
12:20 AM,55.4,42.8,63,29.98,6.2,WNW,16.1,-,N/A,,Scattered Clouds,300,2013-01-04 22:20:00
12:50 AM,53.6,42.8,67,29.95,6.2,WNW,13.8,-,N/A,,Scattered Clouds,300,2013-01-04 22:50:00
1:20 AM,53.6,42.8,67,29.95,6.2,NW,12.7,-,N/A,,Scattered Clouds,320,2013-01-04 23:20:00
1:50 AM,53.6,42.8,67,29.92,6.2,WNW,10.4,-,N/A,,Scattered Clouds,300,2013-01-04 23:50:00
2:00 AM,54,43,58,29.94,6,WNW,10.4,,,,Scattered Clouds,300,2013-01-05 00:00:00
2:50 AM,53.6,42.8,67,29.92,6.2,WNW,11.5,-,N/A,,Scattered Clouds,290,2013-01-05 00:50:00
3:50 AM,53.6,44.6,72,29.92,6.2,WNW,11.5,-,N/A,,Scattered Clouds,290,2013-01-05 01:50:00
4:20 AM,53.6,44.6,72,29.92,6.2,West,13.8,-,N/A,,Scattered Clouds,280,2013-01-05 02:20:00
4:50 AM,53.6,44.6,72,29.89,6.2,WNW,13.8,-,N/A,,Scattered Clouds,300,2013-01-05 02:50:00
5:20 AM,53.6,44.6,72,29.89,6.2,WNW,12.7,-,N/A,,Scattered Clouds,290,2013-01-05 03:20:00
5:50 AM,53.6,44.6,72,29.89,6.2,WNW,11.5,-,N/A,,Scattered Clouds,300,2013-01-05 03:50:00
6:50 AM,53.6,42.8,67,29.89,6.2,WNW,11.5,-,N/A,,Partly Cloudy,300,2013-01-05 04:50:00
7:20 AM,53.6,42.8,67,29.89,6.2,WNW,12.7,-,N/A,,Partly Cloudy,300,2013-01-05 05:20:00
7:50 AM,53.6,41.0,62,29.89,6.2,NW,11.5,-,N/A,,Partly Cloudy,310,2013-01-05 05:50:00
8:00 AM,54,40,49,29.91,6,NW,11.5,,,,Scattered Clouds,310,2013-01-05 06:00:00
8:20 AM,53.6,41.0,62,29.89,6.2,NW,9.2,-,N/A,,Partly Cloudy,320,2013-01-05 06:20:00
8:50 AM,55.4,42.8,63,29.89,6.2,NNW,10.4,-,N/A,,Partly Cloudy,330,2013-01-05 06:50:00
9:20 AM,55.4,41.0,58,29.86,6.2,NW,10.4,-,N/A,,Partly Cloudy,310,2013-01-05 07:20:00
9:50 AM,57.2,41.0,55,29.86,6.2,NW,8.1,-,N/A,,Partly Cloudy,310,2013-01-05 07:50:00
10:20 AM,57.2,41.0,55,29.86,6.2,WNW,6.9,-,N/A,,Partly Cloudy,300,2013-01-05 08:20:00
10:50 AM,57.2,42.8,59,29.86,6.2,WNW,9.2,-,N/A,,Scattered Clouds,290,2013-01-05 08:50:00
11:20 AM,57.2,42.8,59,29.86,6.2,WNW,11.5,-,N/A,,Scattered Clouds,290,2013-01-05 09:20:00
11:50 AM,59.0,42.8,55,29.83,6.2,WNW,10.4,-,N/A,,Scattered Clouds,290,2013-01-05 09:50:00
12:20 PM,59.0,42.8,55,29.83,6.2,West,10.4,-,N/A,,Mostly Cloudy,270,2013-01-05 10:20:00
12:50 PM,59.0,55.4,88,29.83,6.2,West,12.7,-,N/A,,Mostly Cloudy,260,2013-01-05 10:50:00
1:20 PM,59.0,42.8,55,29.80,6.2,WSW,12.7,-,N/A,,Mostly Cloudy,250,2013-01-05 11:20:00
1:50 PM,59.0,44.6,59,29.80,6.2,WSW,12.7,-,N/A,,Mostly Cloudy,250,2013-01-05 11:50:00
2:00 PM,59,44,48,29.81,6,WSW,12.7,,,,Partly Cloudy,250,2013-01-05 12:00:00
2:20 PM,59.0,44.6,59,29.80,6.2,WSW,12.7,-,N/A,,Mostly Cloudy,250,2013-01-05 12:20:00
2:50 PM,59.0,42.8,55,29.80,6.2,West,12.7,-,N/A,,Mostly Cloudy,260,2013-01-05 12:50:00
3:20 PM,59.0,42.8,55,29.80,6.2,West,12.7,-,N/A,,Mostly Cloudy,260,2013-01-05 13:20:00
3:50 PM,57.2,44.6,63,29.77,6.2,West,10.4,-,N/A,,Mostly Cloudy,270,2013-01-05 13:50:00
4:20 PM,57.2,44.6,63,29.77,6.2,West,10.4,-,N/A,,Mostly Cloudy,270,2013-01-05 14:20:00
4:50 PM,57.2,42.8,59,29.77,6.2,West,13.8,-,N/A,,Mostly Cloudy,260,2013-01-05 14:50:00
5:20 PM,57.2,42.8,59,29.77,6.2,West,13.8,-,N/A,,Mostly Cloudy,260,2013-01-05 15:20:00
5:50 PM,55.4,44.6,67,29.77,6.2,WNW,11.5,-,N/A,,Mostly Cloudy,290,2013-01-05 15:50:00
6:20 PM,55.4,44.6,67,29.77,6.2,WNW,11.5,-,N/A,,Mostly Cloudy,290,2013-01-05 16:20:00
6:50 PM,55.4,42.8,63,29.77,6.2,West,9.2,-,N/A,,Mostly Cloudy,280,2013-01-05 16:50:00
7:20 PM,55.4,42.8,63,29.77,6.2,West,9.2,-,N/A,,Mostly Cloudy,280,2013-01-05 17:20:00
7:50 PM,55.4,41.0,58,29.77,6.2,West,10.4,-,N/A,,Mostly Cloudy,280,2013-01-05 17:50:00
8:00 PM,55,40,46,29.78,6,West,10.4,,,,Scattered Clouds,280,2013-01-05 18:00:00
8:20 PM,55.4,41.0,58,29.77,6.2,West,10.4,-,N/A,,Mostly Cloudy,280,2013-01-05 18:20:00
8:50 PM,55.4,42.8,63,29.74,6.2,WNW,10.4,-,N/A,,Mostly Cloudy,290,2013-01-05 18:50:00
9:20 PM,55.4,42.8,63,29.74,6.2,WNW,10.4,-,N/A,,Mostly Cloudy,290,2013-01-05 19:20:00
9:50 PM,55.4,42.8,63,29.77,6.2,West,11.5,-,N/A,,Mostly Cloudy,280,2013-01-05 19:50:00
10:20 PM,55.4,42.8,63,29.77,6.2,West,10.4,-,N/A,,Mostly Cloudy,280,2013-01-05 20:20:00
10:50 PM,55.4,42.8,63,29.74,6.2,WNW,10.4,-,N/A,,Mostly Cloudy,290,2013-01-05 20:50:00
11:20 PM,55.4,42.8,63,29.74,6.2,West,9.2,-,N/A,,Mostly Cloudy,280,2013-01-05 21:20:00
11:50 PM,55.4,41.0,58,29.74,6.2,West,9.2,-,N/A,,Mostly Cloudy,280,2013-01-05 21:50:00